Location: Byszew
(52.1813°N, 19.2693°E)
Time: 21:45:57
(UTC+00:00)

Cosmos 1000 Rocket - Pass Details

Date: 03 March 2021
Orbit: 954 x 991 km, 82.9° (Epoch: 15 April)

Event Time Altitude Azimuth Distance (km) Brightness Sun altitude
Rises 18:53:58 0° 351° (N) 3,688 7.9 -23.1°
Reaches altitude 10° 18:56:32 10° 354° (N) 2,742 7.2 -23.5°
Maximum altitude 19:02:46 63° 76° (ENE) 1,092 4.5 -24.4°
Enters shadow 19:03:54 54° 121° (ESE) 1,184 4.5 -24.5°
